Regional Weather Roundup
Issued by NWS Green Bay, WI

Home | Current Version | Previous Version | Graphics & Text | Print | Product List | Glossary Off
Versions: 1 2 3 4 5 6 7 8 9 10 11 12 13 14 15 16 17 18 19 20 21 22 23 24 25 26 27 28 29 30 31 32 33 34 35 36 37 38 39 40 41 42 43 44 45 46 47 48 49 50

000
ASUS43 KGRB 181100
RWRGRB

NORTH-CENTRAL AND NORTHEAST WISCONSIN REGIONAL WEATHER ROUNDUP
NATIONAL WEATHER SERVICE GREEN BAY WI
500 AM CST SAT NOV 18 2017

WIZ005-009-010>012-018-019-181200-
NORTH CENTRAL WISCONSIN

CITY           SKY/WX    TMP DP  RH WIND       PRES   REMARKS
IRONWOOD       CLOUDY   N/A N/A N/A N5        29.67R
MANITOWISH WTR NOT AVBL
ARBOR VITAE    NOT AVBL
EAGLE RIVER    CLOUDY    32  32 100 N8        29.60R FOG
LAND O LAKES   NOT AVBL
RHINELANDER    FOG       33  33 100 N8        29.60S VSB 1
PHILLIPS       CLOUDY    32  32 100 NW6       29.65R FOG
ANTIGO         NOT AVBL
TOMAHAWK       NOT AVBL
MERRILL        CLOUDY    33  33 100 N8        29.61R FOG
$$

WIZ013-073-181200-
NORTHEAST WISCONSIN

CITY           SKY/WX    TMP DP  RH WIND       PRES   REMARKS
IRON MOUNTAIN  CLOUDY    35  32  88 N9        29.56S FOG
MARINETTE      CLOUDY   N/A N/A N/A N5        29.59S
$$

WIZ017-030-035>037-045-181200-
CENTRAL WISCONSIN

CITY           SKY/WX    TMP DP  RH WIND       PRES   REMARKS
MEDFORD        NOT AVBL
WAUSAU         CLOUDY    34  33  96 N8        29.59S
MOSINEE        NOT AVBL
MARSHFIELD     CLOUDY    34  31  88 N9        29.60R
WISC RAPIDS    CLOUDY    35  33  92 N9        29.61R
STEVENS POINT  NOT AVBL
WAUPACA        NOT AVBL
SHAWANO        NOT AVBL
CLINTONVILLE   NOT AVBL
WAUTOMA        CLOUDY    35  33  92 N8        29.58R
$$

WIZ038-039-048-051-181200-
FOX VALLEY

CITY           SKY/WX    TMP DP  RH WIND       PRES   REMARKS
NWS GREEN BAY  CLOUDY    36  35  96 N10       29.56F
APPLETON       NOT AVBL
OSHKOSH        MIX PCPN  36  34  92 N9        29.56F
FOND DU LAC    LGT RAIN  37  33  85 N14       29.54F
$$

WIZ022-050-052-181200-
EAST CENTRAL WISCONSIN

CITY           SKY/WX    TMP DP  RH WIND       PRES   REMARKS
EPHRAIM        NOT AVBL
WASHINGTON ISL NOT AVBL
STURGEON BAY   CLOUDY    38  35  89 N10       29.58R
MANITOWOC      LGT RAIN  37  35  92 N8        29.56F
SHEBOYGAN      LGT RAIN  37  35  92 N9        29.56F
$$

LMZ563-521-522-541>543-181200-
LAKESHORE

STATION/POSITION TIME  TEMP    WIND        PRES    VSBY  WAVE
                       AIR SEA DIR/SP/G                  HT/PER
                 (UTC) (F)     (DEG/KT/KT) (MB)    (MI)  (FT/S)
SHEBOYGAN LKSHOR 1000   38     330/ 12/ 13 1001.7R
NORTHPORT PIER   1040   40     360/ 18/ 21 1002.0R
N MID LAKE BUOY  0950   40 48  350/ 19/ 25 1000.9R         6/ 8
SISTER BAY LKSHO 1007   39      20/ 11/ 16   N/A
$$




USA.gov is the U.S. government's official web portal to all federal, state and local government web resources and services.